Find PRSC-E03

NORAD ID: 68835 Int'l Des: 2026-092A Owner: SUPA Country: PK operational
LEOCIRCULAR

当前视图

正在加载3D地球...

About PRSC-E03

PRSC-E03 (NORAD 68835) is a satellite launched Apr 25, 2026 by SUPA of PK. It operates in LEO, CIRCULAR orbit with a mass of 500.00 kg.

即将过境

Passes for default location (London). Set your location on the main map for personalized predictions.

高度历史

Loading altitude history...

两行轨道根数

1 68835U 26092A 26166.92900644 .00002303 00000-0 15950-3 0 9995
2 68835 38.0005 97.0991 0003954 354.4519 5.6198 15.06663099 7769
Epoch: Jun 15, 2026 • Age: 8 hours

当前状态

高度 544.7 km
速度 7.60 km/s
星下点 28.86°N, 137.96°E
发射日期 Apr 25, 2026
运行时间 0.1 years
类型 other

技术详情

分类 Payload
质量 500.00 kg
干质量 500.00 kg
总质量 500.00 kg
长度 2.00 m
直径 1.50 m
跨度 8.00 m
形状 Box + 2 Pan
制造商 SUPA
平台类型 PRSC-EO
阶段状态 In Orbit
所有者/国家 SUPA/PK

Most Searched